IRIDIUM 33 DEB, 34088

Orbit data source: Space-Track

IRIDIUM 33 DEB, 34088 is space debris in LEO originally from a launch on Sun, 14 Sep 1997 UTC launched from the Tyuratam Missile And Space Complex (TTMTR). The debris from Iridium 33, an American commercial communications satellite, has been tracked extensively since its accidental collision with the defunct Russian satellite Cosmos 2251 in 2009. This event, occurring at high speed in low Earth orbit (LEO), generated thousands of pieces of space debris, significantly increasing the risk of further collisions. The Iridium 33 debris cloud has impacted space traffic management and orbital debris mitigation strategies, making it a subject of ongoing study in space situational awareness.

Loading next visibility...
Identifier
34088, 1997-051CX
Orbit
LEO
Country
Flag of USUS
Related business
Manufacturer
Unknown
Mission
Spacecraft
Bus & Motor
Unknown
Mass
Unknown
Launch date (UTC)
1997-09-14 (29 years ago)
Launch vehicle
Unknown
Launch site
Tyuratam Missile And Space Complex (TTMTR)
Object type
Payload
Rocket body
Debris
Shape & HBR
Unknown shape, 0.2 m
Radar Cross Section
Medium (>0.1 m² and <1 m²)

Expand to show TLE details & history
Last TLE update: 17 hours ago

TLE from 17 hours ago
0 IRIDIUM 33 DEB
1 34088U 97051CX  26104.90249637  .00013660  00000-0  10809-2 0  9994
2 34088  86.3819 333.7352 0005466  97.7405 281.8329 15.00508543905838
Epoch: 2026-04-14T21:39Z
TLE epoch observation values (Epoch: 2026-04-14T21:39:35.686Z)
Latitude
19.47044°
Longitude
167.03837°
Altitude
567.226 km
Speed
7.58 km/s
True Right ascension
22h 20m 02s
True Declination
19° 21' 35"
Sunlit
Object was in daylight at epoch
Visualization orbit readout
Latitude
Unknown
Longitude
Unknown
Altitude
Unknown
Speed
Unknown
Apparent Right ascension
Unknown
Apparent Declination
Unknown
Sunlit
N/A
Visualization observer readout
Local Sidereal Time
20:48:31
Azimuth
Unknown
Elevation
Unknown
Doppler factor
Unknown
Orbital elements
Apogee altitude
565.992 km
Perigee altitude
558.405 km
Semi-major axis
6,940.336 km
Eccentricity
0.00055
Inclination
86.3819°
RAAN
333.7352°
Arg. of periapsis
97.7405°
True anomaly
281.77159°
Mean anomaly
281.8329°
Eccentric anomaly
281.80224°
Mean motion
3.75381 °/min
Orbital period
95.9 mins
BSTAR
0.0010809
Loading maneuver chart data...
Computing Atmospheric mass density...

Documentation

Showing up to 5 results
|